<?xml version="1.0"?>
<gpx xmlns="http://www.topografix.com/GPX/1/1" xmlns:xsi="http://www.w3.org/2001/XMLSchema-instance" version="1.1" creator="GPX RubyGem 1.0.0 -- http://dougfales.github.io/gpx/" xsi:schemaLocation="http://www.topografix.com/GPX/1/1 http://www.topografix.com/GPX/1/1/gpx.xsd">
  <metadata>
    <name/>
    <time>2026-05-10T10:44:18+00:00</time>
    <bound minlat="90.0" minlon="180.0" maxlat="-90.0" maxlon="-180.0"/>
  </metadata>
  <trk>
    <name/>
    <trkseg>
      <trkpt lat="51.074987" lon="13.797527">
        <time>1970-01-01T00:00:00+00:00</time>
        <ele>201.0</ele>
      </trkpt>
      <trkpt lat="51.074986" lon="13.797803">
        <time>1970-01-01T00:00:00+00:00</time>
        <ele>203.0</ele>
      </trkpt>
      <trkpt lat="51.074986" lon="13.797995">
        <time>1970-01-01T00:00:00+00:00</time>
        <ele>204.0</ele>
      </trkpt>
      <trkpt lat="51.075122" lon="13.798216">
        <time>1970-01-01T00:00:00+00:00</time>
        <ele>203.0</ele>
      </trkpt>
      <trkpt lat="51.075486" lon="13.7988">
        <time>1970-01-01T00:00:00+00:00</time>
        <ele>198.0</ele>
      </trkpt>
      <trkpt lat="51.075633" lon="13.799235">
        <time>1970-01-01T00:00:00+00:00</time>
        <ele>193.0</ele>
      </trkpt>
      <trkpt lat="51.075636" lon="13.799595">
        <time>1970-01-01T00:00:00+00:00</time>
        <ele>196.0</ele>
      </trkpt>
      <trkpt lat="51.075553" lon="13.799866">
        <time>1970-01-01T00:00:00+00:00</time>
        <ele>201.0</ele>
      </trkpt>
      <trkpt lat="51.075768" lon="13.800566">
        <time>1970-01-01T00:00:00+00:00</time>
        <ele>203.0</ele>
      </trkpt>
      <trkpt lat="51.0758" lon="13.800671">
        <time>1970-01-01T00:00:00+00:00</time>
        <ele>205.0</ele>
      </trkpt>
      <trkpt lat="51.075899" lon="13.800775">
        <time>1970-01-01T00:00:00+00:00</time>
        <ele>206.0</ele>
      </trkpt>
      <trkpt lat="51.075888" lon="13.800991">
        <time>1970-01-01T00:00:00+00:00</time>
        <ele>208.0</ele>
      </trkpt>
      <trkpt lat="51.075839" lon="13.801057">
        <time>1970-01-01T00:00:00+00:00</time>
        <ele>208.0</ele>
      </trkpt>
      <trkpt lat="51.075806" lon="13.80117">
        <time>1970-01-01T00:00:00+00:00</time>
        <ele>209.0</ele>
      </trkpt>
      <trkpt lat="51.075965" lon="13.801484">
        <time>1970-01-01T00:00:00+00:00</time>
        <ele>210.0</ele>
      </trkpt>
      <trkpt lat="51.076018" lon="13.801803">
        <time>1970-01-01T00:00:00+00:00</time>
        <ele>213.0</ele>
      </trkpt>
      <trkpt lat="51.076066" lon="13.802347">
        <time>1970-01-01T00:00:00+00:00</time>
        <ele>218.0</ele>
      </trkpt>
      <trkpt lat="51.076611" lon="13.80266">
        <time>1970-01-01T00:00:00+00:00</time>
        <ele>226.0</ele>
      </trkpt>
      <trkpt lat="51.077095" lon="13.803354">
        <time>1970-01-01T00:00:00+00:00</time>
        <ele>235.0</ele>
      </trkpt>
      <trkpt lat="51.077766" lon="13.803936">
        <time>1970-01-01T00:00:00+00:00</time>
        <ele>232.0</ele>
      </trkpt>
      <trkpt lat="51.077992" lon="13.804228">
        <time>1970-01-01T00:00:00+00:00</time>
        <ele>232.0</ele>
      </trkpt>
      <trkpt lat="51.078579" lon="13.805143">
        <time>1970-01-01T00:00:00+00:00</time>
        <ele>237.0</ele>
      </trkpt>
      <trkpt lat="51.078853" lon="13.80557">
        <time>1970-01-01T00:00:00+00:00</time>
        <ele>240.0</ele>
      </trkpt>
      <trkpt lat="51.07902" lon="13.806029">
        <time>1970-01-01T00:00:00+00:00</time>
        <ele>243.0</ele>
      </trkpt>
      <trkpt lat="51.079039" lon="13.806255">
        <time>1970-01-01T00:00:00+00:00</time>
        <ele>243.0</ele>
      </trkpt>
      <trkpt lat="51.079336" lon="13.806691">
        <time>1970-01-01T00:00:00+00:00</time>
        <ele>241.0</ele>
      </trkpt>
      <trkpt lat="51.079365" lon="13.807281">
        <time>1970-01-01T00:00:00+00:00</time>
        <ele>241.0</ele>
      </trkpt>
      <trkpt lat="51.079333" lon="13.807733">
        <time>1970-01-01T00:00:00+00:00</time>
        <ele>242.0</ele>
      </trkpt>
      <trkpt lat="51.079592" lon="13.808097">
        <time>1970-01-01T00:00:00+00:00</time>
        <ele>239.0</ele>
      </trkpt>
      <trkpt lat="51.08" lon="13.808503">
        <time>1970-01-01T00:00:00+00:00</time>
        <ele>242.0</ele>
      </trkpt>
      <trkpt lat="51.080178" lon="13.808884">
        <time>1970-01-01T00:00:00+00:00</time>
        <ele>240.0</ele>
      </trkpt>
      <trkpt lat="51.080173" lon="13.809129">
        <time>1970-01-01T00:00:00+00:00</time>
        <ele>238.0</ele>
      </trkpt>
      <trkpt lat="51.080134" lon="13.809298">
        <time>1970-01-01T00:00:00+00:00</time>
        <ele>238.0</ele>
      </trkpt>
      <trkpt lat="51.080174" lon="13.809413">
        <time>1970-01-01T00:00:00+00:00</time>
        <ele>237.0</ele>
      </trkpt>
      <trkpt lat="51.080192" lon="13.809634">
        <time>1970-01-01T00:00:00+00:00</time>
        <ele>237.0</ele>
      </trkpt>
      <trkpt lat="51.080289" lon="13.810074">
        <time>1970-01-01T00:00:00+00:00</time>
        <ele>236.0</ele>
      </trkpt>
      <trkpt lat="51.080417" lon="13.810437">
        <time>1970-01-01T00:00:00+00:00</time>
        <ele>237.0</ele>
      </trkpt>
      <trkpt lat="51.080779" lon="13.810974">
        <time>1970-01-01T00:00:00+00:00</time>
        <ele>239.0</ele>
      </trkpt>
      <trkpt lat="51.080912" lon="13.811863">
        <time>1970-01-01T00:00:00+00:00</time>
        <ele>242.0</ele>
      </trkpt>
      <trkpt lat="51.080951" lon="13.812419">
        <time>1970-01-01T00:00:00+00:00</time>
        <ele>243.0</ele>
      </trkpt>
      <trkpt lat="51.080951" lon="13.813315">
        <time>1970-01-01T00:00:00+00:00</time>
        <ele>245.0</ele>
      </trkpt>
      <trkpt lat="51.080825" lon="13.81484">
        <time>1970-01-01T00:00:00+00:00</time>
        <ele>251.0</ele>
      </trkpt>
      <trkpt lat="51.081016" lon="13.815877">
        <time>1970-01-01T00:00:00+00:00</time>
        <ele>255.0</ele>
      </trkpt>
      <trkpt lat="51.081022" lon="13.816278">
        <time>1970-01-01T00:00:00+00:00</time>
        <ele>255.0</ele>
      </trkpt>
      <trkpt lat="51.080725" lon="13.817517">
        <time>1970-01-01T00:00:00+00:00</time>
        <ele>254.0</ele>
      </trkpt>
      <trkpt lat="51.080731" lon="13.817852">
        <time>1970-01-01T00:00:00+00:00</time>
        <ele>254.0</ele>
      </trkpt>
      <trkpt lat="51.080905" lon="13.81806">
        <time>1970-01-01T00:00:00+00:00</time>
        <ele>254.0</ele>
      </trkpt>
      <trkpt lat="51.081345" lon="13.81894">
        <time>1970-01-01T00:00:00+00:00</time>
        <ele>254.0</ele>
      </trkpt>
      <trkpt lat="51.081618" lon="13.81984">
        <time>1970-01-01T00:00:00+00:00</time>
        <ele>256.0</ele>
      </trkpt>
      <trkpt lat="51.081681" lon="13.819706">
        <time>1970-01-01T00:00:00+00:00</time>
        <ele>256.0</ele>
      </trkpt>
      <trkpt lat="51.08191" lon="13.819365">
        <time>1970-01-01T00:00:00+00:00</time>
        <ele>257.0</ele>
      </trkpt>
      <trkpt lat="51.082029" lon="13.819268">
        <time>1970-01-01T00:00:00+00:00</time>
        <ele>257.0</ele>
      </trkpt>
      <trkpt lat="51.082296" lon="13.819345">
        <time>1970-01-01T00:00:00+00:00</time>
        <ele>257.0</ele>
      </trkpt>
      <trkpt lat="51.082551" lon="13.81932">
        <time>1970-01-01T00:00:00+00:00</time>
        <ele>257.0</ele>
      </trkpt>
      <trkpt lat="51.082884" lon="13.819067">
        <time>1970-01-01T00:00:00+00:00</time>
        <ele>257.0</ele>
      </trkpt>
      <trkpt lat="51.08373" lon="13.818242">
        <time>1970-01-01T00:00:00+00:00</time>
        <ele>256.0</ele>
      </trkpt>
      <trkpt lat="51.08376" lon="13.81817">
        <time>1970-01-01T00:00:00+00:00</time>
        <ele>256.0</ele>
      </trkpt>
      <trkpt lat="51.08376" lon="13.81817">
        <time>1970-01-01T00:00:00+00:00</time>
        <ele>256.0</ele>
      </trkpt>
      <trkpt lat="51.08373" lon="13.818242">
        <time>1970-01-01T00:00:00+00:00</time>
        <ele>256.0</ele>
      </trkpt>
      <trkpt lat="51.082884" lon="13.819067">
        <time>1970-01-01T00:00:00+00:00</time>
        <ele>257.0</ele>
      </trkpt>
      <trkpt lat="51.082551" lon="13.81932">
        <time>1970-01-01T00:00:00+00:00</time>
        <ele>257.0</ele>
      </trkpt>
      <trkpt lat="51.082296" lon="13.819345">
        <time>1970-01-01T00:00:00+00:00</time>
        <ele>257.0</ele>
      </trkpt>
      <trkpt lat="51.082029" lon="13.819268">
        <time>1970-01-01T00:00:00+00:00</time>
        <ele>257.0</ele>
      </trkpt>
      <trkpt lat="51.082283" lon="13.818651">
        <time>1970-01-01T00:00:00+00:00</time>
        <ele>256.0</ele>
      </trkpt>
      <trkpt lat="51.082308" lon="13.818035">
        <time>1970-01-01T00:00:00+00:00</time>
        <ele>257.0</ele>
      </trkpt>
      <trkpt lat="51.082813" lon="13.816771">
        <time>1970-01-01T00:00:00+00:00</time>
        <ele>255.0</ele>
      </trkpt>
      <trkpt lat="51.083262" lon="13.815795">
        <time>1970-01-01T00:00:00+00:00</time>
        <ele>251.0</ele>
      </trkpt>
      <trkpt lat="51.083588" lon="13.815017">
        <time>1970-01-01T00:00:00+00:00</time>
        <ele>251.0</ele>
      </trkpt>
      <trkpt lat="51.083642" lon="13.814896">
        <time>1970-01-01T00:00:00+00:00</time>
        <ele>254.0</ele>
      </trkpt>
      <trkpt lat="51.083811" lon="13.814545">
        <time>1970-01-01T00:00:00+00:00</time>
        <ele>258.0</ele>
      </trkpt>
      <trkpt lat="51.083856" lon="13.814439">
        <time>1970-01-01T00:00:00+00:00</time>
        <ele>258.0</ele>
      </trkpt>
      <trkpt lat="51.08396" lon="13.814111">
        <time>1970-01-01T00:00:00+00:00</time>
        <ele>256.0</ele>
      </trkpt>
      <trkpt lat="51.084052" lon="13.813946">
        <time>1970-01-01T00:00:00+00:00</time>
        <ele>256.0</ele>
      </trkpt>
      <trkpt lat="51.08354" lon="13.812042">
        <time>1970-01-01T00:00:00+00:00</time>
        <ele>251.0</ele>
      </trkpt>
      <trkpt lat="51.083348" lon="13.811429">
        <time>1970-01-01T00:00:00+00:00</time>
        <ele>248.0</ele>
      </trkpt>
      <trkpt lat="51.083221" lon="13.81102">
        <time>1970-01-01T00:00:00+00:00</time>
        <ele>248.0</ele>
      </trkpt>
      <trkpt lat="51.083061" lon="13.810639">
        <time>1970-01-01T00:00:00+00:00</time>
        <ele>246.0</ele>
      </trkpt>
      <trkpt lat="51.082245" lon="13.80935">
        <time>1970-01-01T00:00:00+00:00</time>
        <ele>243.0</ele>
      </trkpt>
      <trkpt lat="51.081919" lon="13.808843">
        <time>1970-01-01T00:00:00+00:00</time>
        <ele>245.0</ele>
      </trkpt>
      <trkpt lat="51.080758" lon="13.807102">
        <time>1970-01-01T00:00:00+00:00</time>
        <ele>238.0</ele>
      </trkpt>
      <trkpt lat="51.080292" lon="13.806197">
        <time>1970-01-01T00:00:00+00:00</time>
        <ele>239.0</ele>
      </trkpt>
      <trkpt lat="51.079923" lon="13.805076">
        <time>1970-01-01T00:00:00+00:00</time>
        <ele>237.0</ele>
      </trkpt>
      <trkpt lat="51.079627" lon="13.80422">
        <time>1970-01-01T00:00:00+00:00</time>
        <ele>235.0</ele>
      </trkpt>
      <trkpt lat="51.079401" lon="13.803668">
        <time>1970-01-01T00:00:00+00:00</time>
        <ele>234.0</ele>
      </trkpt>
      <trkpt lat="51.07916" lon="13.803182">
        <time>1970-01-01T00:00:00+00:00</time>
        <ele>235.0</ele>
      </trkpt>
      <trkpt lat="51.078908" lon="13.80276">
        <time>1970-01-01T00:00:00+00:00</time>
        <ele>237.0</ele>
      </trkpt>
      <trkpt lat="51.078605" lon="13.802316">
        <time>1970-01-01T00:00:00+00:00</time>
        <ele>235.0</ele>
      </trkpt>
      <trkpt lat="51.078327" lon="13.801955">
        <time>1970-01-01T00:00:00+00:00</time>
        <ele>232.0</ele>
      </trkpt>
      <trkpt lat="51.077978" lon="13.801574">
        <time>1970-01-01T00:00:00+00:00</time>
        <ele>230.0</ele>
      </trkpt>
      <trkpt lat="51.077126" lon="13.800797">
        <time>1970-01-01T00:00:00+00:00</time>
        <ele>219.0</ele>
      </trkpt>
      <trkpt lat="51.076812" lon="13.800453">
        <time>1970-01-01T00:00:00+00:00</time>
        <ele>220.0</ele>
      </trkpt>
      <trkpt lat="51.076611" lon="13.800169">
        <time>1970-01-01T00:00:00+00:00</time>
        <ele>214.0</ele>
      </trkpt>
      <trkpt lat="51.076506" lon="13.799983">
        <time>1970-01-01T00:00:00+00:00</time>
        <ele>211.0</ele>
      </trkpt>
      <trkpt lat="51.076377" lon="13.799719">
        <time>1970-01-01T00:00:00+00:00</time>
        <ele>206.0</ele>
      </trkpt>
      <trkpt lat="51.075843" lon="13.798441">
        <time>1970-01-01T00:00:00+00:00</time>
        <ele>196.0</ele>
      </trkpt>
      <trkpt lat="51.075421" lon="13.798166">
        <time>1970-01-01T00:00:00+00:00</time>
        <ele>200.0</ele>
      </trkpt>
      <trkpt lat="51.075278" lon="13.798145">
        <time>1970-01-01T00:00:00+00:00</time>
        <ele>203.0</ele>
      </trkpt>
      <trkpt lat="51.075122" lon="13.798216">
        <time>1970-01-01T00:00:00+00:00</time>
        <ele>203.0</ele>
      </trkpt>
      <trkpt lat="51.074986" lon="13.797995">
        <time>1970-01-01T00:00:00+00:00</time>
        <ele>204.0</ele>
      </trkpt>
      <trkpt lat="51.074986" lon="13.797803">
        <time>1970-01-01T00:00:00+00:00</time>
        <ele>203.0</ele>
      </trkpt>
      <trkpt lat="51.074987" lon="13.797527">
        <time>1970-01-01T00:00:00+00:00</time>
        <ele>201.0</ele>
      </trkpt>
    </trkseg>
  </trk>
</gpx>
